Location: Newcastle Observatory
(43.9158°N, 78.5831°W)
Time: 02:43:36
(UTC-04:00)

Amateur Radio Satellites - All Passes

Search period start: 29 September 2016 02:13
Search period end: 30 September 2016 02:13
Location: Newcastle Observatory, 43.9158°N, 78.5831°W

Satellite Date Start Highest point End Downlink Frequencies (MHz)
Time Altitude Azimuth
NANOSAT C BR1 29 Sep 02:14:48 02:17:34 17° 296° (WNW) 02:20:20 145.865
RS-15 29 Sep 02:20:33 02:31:04 31° 17° (NNE) 02:41:34 29.354- 29.394
SWISSCUBE 29 Sep 02:22:56 02:27:31 50° 71° (ENE) 02:32:08 437.505
BEESAT 3 29 Sep 02:30:15 02:33:38 27° 314° (NW) 02:37:05 437.485
BEESAT 29 Sep 02:35:41 02:40:21 60° 72° (ENE) 02:45:03 436.000
YUBILEINY 29 Sep 02:36:19 02:44:00 36° 84° (E) 02:51:40 435.215
Oscar 19 29 Sep 02:40:21 02:45:31 66° 102° (ESE) 02:50:36 437.125/150
Cosmos 2504 29 Sep 02:50:58 02:53:45 12° 76° (ENE) 02:56:29 435.465 / 435.565
TISAT 1 29 Sep 02:57:44 03:00:19 16° 268° (W) 03:02:55 437.305
AO-7 29 Sep 03:07:08 03:09:45 12° 85° (E) 03:12:21 29.400- 29.500
ISS 29 Sep 03:09:29 03:12:38 44° 218° (SW) 03:15:48 145.825
JAS-2 29 Sep 03:24:00 03:29:08 19° 307° (NW) 03:34:10 435.910
BEESAT 2 29 Sep 03:29:15 03:31:55 17° 320° (NW) 03:34:37 435.950
Cosmos 2491 29 Sep 03:31:46 03:40:10 50° 271° (W) 03:48:30 435.465 / 435.565
PCSat 29 Sep 03:34:21 03:37:24 15° 104° (ESE) 03:40:28 145.827
ITAMSAT 1 29 Sep 03:36:22 03:40:56 30° 96° (E) 03:45:28 435.822/435.867
Gurwin Techsat 1B 29 Sep 03:47:35 03:52:52 65° 288° (WNW) 03:58:08 435.225
ITUPSAT 1 29 Sep 03:48:54 03:52:59 28° 265° (W) 03:57:05 437.325
MOZHAYETS 4 29 Sep 03:51:38 03:56:07 60° 73° (ENE) 04:00:40
SWISSCUBE 29 Sep 04:02:14 04:05:35 19° 268° (W) 04:08:57 437.505
KKS-1 29 Sep 04:08:16 04:12:39 59° 73° (ENE) 04:17:02 437.445
BEESAT 29 Sep 04:15:40 04:18:32 16° 269° (W) 04:21:24 436.000
AO-85 29 Sep 04:19:26 04:21:25 13° 32° (NNE) 04:23:19 145.980
Oscar 19 29 Sep 04:20:55 04:24:18 18° 300° (WNW) 04:27:40 437.125/150
AIST 2 29 Sep 04:22:17 04:26:23 89° 304° (WNW) 04:30:34 435.215
YUBILEINY 29 Sep 04:31:55 04:40:27 54° 285° (WNW) 04:49:00 435.215
RS-15 29 Sep 04:34:20 04:46:41 64° 48° (NE) 04:58:45 29.354- 29.394
Cosmos 2504 29 Sep 04:38:28 04:45:50 78° 96° (E) 04:53:00 435.465 / 435.565
STARS 29 Sep 04:38:33 04:42:52 60° 73° (ENE) 04:47:12 437.465
AO-7 29 Sep 04:55:50 05:04:06 65° 105° (ESE) 05:12:19 29.400- 29.500
CUSAT 1 29 Sep 05:04:25 05:10:21 23° 60° (ENE) 05:15:39 437.405
DANDE 29 Sep 05:05:15 05:09:04 14° 52° (NE) 05:12:51 436.750
CUBESAT XI-V 29 Sep 05:14:36 05:19:13 59° 73° (ENE) 05:23:52 437.345
PCSat 29 Sep 05:14:40 05:20:05 79° 301° (WNW) 05:25:33 145.827
ITAMSAT 1 29 Sep 05:15:40 05:20:27 37° 293° (WNW) 05:25:13 435.822/435.867
HORYU 2 29 Sep 05:19:30 05:21:50 14° 91° (E) 05:24:09 437.375
MOZHAYETS 4 29 Sep 05:31:08 05:33:42 15° 270° (W) 05:36:15
Gurwin Techsat 1B 29 Sep 05:31:28 05:31:48 10° 306° (NW) 05:32:08 435.225
AIST 1 29 Sep 05:34:26 05:38:45 59° 94° (E) 05:43:04
KKS-1 29 Sep 05:47:12 05:49:35 14° 269° (W) 05:51:58 437.445
BRITE-PL 29 Sep 05:55:08 05:58:39 20° 90° (E) 06:01:58 437.365/2234.400
AO-85 29 Sep 05:58:29 06:02:41 74° 54° (NE) 06:06:36 145.980
AIST 2 29 Sep 06:03:11 06:05:29 14° 324° (NW) 06:07:49 435.215
STARS 29 Sep 06:17:25 06:19:37 14° 269° (W) 06:21:49 437.465
Cosmos 2504 29 Sep 06:34:54 06:40:02 20° 296° (WNW) 06:45:08 435.465 / 435.565
YUBILEINY 29 Sep 06:37:23 06:39:42 11° 310° (NW) 06:42:01 435.215
NOAA 18 29 Sep 06:37:44 06:41:12 17° 91° (E) 06:44:39 137.9125
CUSAT 1 29 Sep 06:45:37 06:53:25 80° 263° (W) 06:59:51 437.405
DANDE 29 Sep 06:45:37 06:53:51 55° 73° (ENE) 07:01:31 436.750
RS-15 29 Sep 06:47:27 06:58:47 45° 251° (WSW) 07:09:53 29.354- 29.394
STRAND 1 29 Sep 06:49:14 06:53:40 31° 66° (ENE) 06:58:08 437.568
AO-7 29 Sep 06:49:17 06:56:22 33° 304° (NW) 07:03:26 29.400- 29.500
CUBESAT XI-V 29 Sep 06:54:10 06:56:58 16° 270° (W) 06:59:49 437.345
HORYU 2 29 Sep 06:54:22 06:58:46 60° 287° (WNW) 07:03:10 437.375
PCSat 29 Sep 07:00:54 07:04:23 17° 323° (NW) 07:07:53 145.827
LilacSat-2 29 Sep 07:02:30 07:06:01 33° 97° (E) 07:09:32 437.200
NOAA 15 29 Sep 07:03:35 07:08:39 43° 99° (E) 07:13:40 137.62
GONETS M04 29 Sep 07:05:35 07:07:46 11° 70° (ENE) 07:09:58
AIST 1 29 Sep 07:14:29 07:16:46 14° 293° (WNW) 07:19:01
GOMX 1 29 Sep 07:15:04 07:19:24 53° 99° (E) 07:23:31 467.674
CUTE-I 29 Sep 07:24:11 07:29:27 55° 100° (E) 07:34:43 437.470
Cubesat XI-IV 29 Sep 07:24:29 07:29:45 55° 101° (E) 07:35:00 437.490
DOVE 4 29 Sep 07:29:46 07:33:31 31° 96° (E) 07:37:11 437.250
BRITE-PL 29 Sep 07:32:51 07:37:25 43° 290° (WNW) 07:41:38 437.365/2234.400
O/OREOS (USA 219) 29 Sep 07:38:31 07:43:02 70° 110° (ESE) 07:47:37 437.305
AO-85 29 Sep 07:41:42 07:42:22 10° 253° (WSW) 07:43:02 145.980
Cosmos 2499 29 Sep 07:48:52 07:52:48 16° 78° (ENE) 07:56:44 435.465 / 435.565
NOAA 18 29 Sep 08:16:56 08:22:22 69° 288° (WNW) 08:27:48 137.9125
HO-68 29 Sep 08:21:02 08:27:14 31° 95° (E) 08:33:24 435.675
SEEDS 29 Sep 08:23:49 08:26:32 16° 91° (E) 08:29:14 437.485
CUTE 1.7 + AOD 2 29 Sep 08:24:23 08:27:53 24° 94° (E) 08:31:21 437.475
CANX-2 29 Sep 08:25:46 08:29:29 28° 95° (E) 08:33:12 2200.000
STRAND 1 29 Sep 08:28:09 08:32:46 34° 263° (W) 08:37:26 437.568
DANDE 29 Sep 08:28:52 08:36:22 38° 273° (W) 08:43:22 436.750
CUSAT 1 29 Sep 08:29:58 08:33:54 15° 284° (WNW) 08:37:32 437.405
BEESAT 2 29 Sep 08:30:49 08:31:43 11° 33° (NNE) 08:32:38 435.950
CINEMA 3 29 Sep 08:31:17 08:35:11 37° 97° (E) 08:39:10 145.822/145.860
LilacSat-2 29 Sep 08:37:20 08:40:06 19° 293° (WNW) 08:42:52 437.200
AAUSAT CUBESAT 2 29 Sep 08:42:41 08:44:54 14° 90° (E) 08:47:06 437.432
NOAA 15 29 Sep 08:43:49 08:48:12 27° 296° (WNW) 08:52:34 137.62
GONETS M04 29 Sep 08:53:58 09:02:36 61° 92° (E) 09:11:17
GOMX 1 29 Sep 08:54:26 08:57:01 16° 298° (WNW) 08:59:33 467.674
CUTE-I 29 Sep 09:05:04 09:09:07 22° 298° (WNW) 09:13:09 437.470
Cubesat XI-IV 29 Sep 09:05:22 09:09:26 22° 298° (WNW) 09:13:29 437.490
DOVE 4 29 Sep 09:07:46 09:11:06 23° 294° (WNW) 09:14:22 437.250
BEESAT 3 29 Sep 09:08:00 09:11:36 31° 47° (NE) 09:15:10 437.485
ANTELSAT 29 Sep 09:10:21 09:10:48 10° 59° (ENE) 09:11:15 437.575/2403.000
PRISM 29 Sep 09:14:05 09:18:15 83° 74° (ENE) 09:22:27 437.425
O/OREOS (USA 219) 29 Sep 09:20:09 09:22:58 16° 310° (NW) 09:25:48 437.305
COMPASS 1 29 Sep 09:26:56 09:31:06 54° 100° (E) 09:35:13 437.405
FUNcube-1 29 Sep 09:27:59 09:30:56 18° 92° (E) 09:33:54 145.935
TIGRISAT 29 Sep 09:28:16 09:30:42 15° 63° (ENE) 09:33:09 435.000
CUBEBUG 2 29 Sep 09:28:57 09:33:04 44° 99° (E) 09:37:18 437.445
Cosmos 2499 29 Sep 09:37:43 09:44:51 86° 277° (W) 09:51:59 435.465 / 435.565
UWE-3 29 Sep 09:43:58 09:48:05 42° 98° (E) 09:52:18 435.000/436.395/437.385
DELFI C3 29 Sep 09:50:55 09:52:16 11° 89° (E) 09:53:36 145.870
SEEDS 29 Sep 09:58:23 10:02:29 46° 288° (WNW) 10:06:34 437.485
CUTE 1.7 + AOD 2 29 Sep 09:59:54 10:03:45 33° 291° (WNW) 10:07:36 437.475
NOAA 18 29 Sep 10:00:26 10:02:02 11° 307° (NW) 10:03:38 137.9125
CANX-2 29 Sep 10:01:36 10:05:17 28° 292° (WNW) 10:08:56 2200.000
Oscar 11 29 Sep 10:05:13 10:09:24 44° 98° (E) 10:13:34 145.826/435.025
BEESAT 2 29 Sep 10:06:23 10:10:23 59° 53° (NE) 10:14:21 435.950
UNISAT 6 29 Sep 10:07:34 10:11:32 39° 71° (ENE) 10:15:31 437.425
HO-68 29 Sep 10:08:19 10:15:15 55° 294° (WNW) 10:22:10 435.675
CINEMA 3 29 Sep 10:09:03 10:12:08 20° 294° (WNW) 10:15:14 145.822/145.860
ZACube-1 29 Sep 10:09:54 10:14:09 52° 100° (E) 10:18:28 437.345
JAS-2 29 Sep 10:10:07 10:13:08 13° 47° (NE) 10:16:17 435.910
AAUSAT CUBESAT 2 29 Sep 10:16:36 10:20:42 53° 287° (WNW) 10:24:47 437.432
HUMSAT D 29 Sep 10:18:53 10:20:52 13° 90° (E) 10:22:50 437.325/437.525
PHONESAT 2.4 29 Sep 10:35:32 10:37:22 15° 156° (SSE) 10:39:13 2401.200-2431.200
ANTELSAT 29 Sep 10:42:34 10:46:50 87° 257° (WSW) 10:51:07 437.575/2403.000
BEESAT 3 29 Sep 10:45:46 10:49:10 27° 245° (WSW) 10:52:33 437.485
GONETS M04 29 Sep 10:52:16 10:59:58 32° 293° (WNW) 11:07:44
DUCHIFAT 1 29 Sep 10:59:55 11:02:46 18° 64° (ENE) 11:05:37 145.980
TIGRISAT 29 Sep 11:02:48 11:06:58 55° 260° (W) 11:11:09 435.000
FUNcube-1 29 Sep 11:03:14 11:07:23 46° 288° (WNW) 11:11:36 145.935
QB50P1 29 Sep 11:03:19 11:06:35 22° 66° (ENE) 11:09:50 145.935-145.965
COMPASS 1 29 Sep 11:03:45 11:06:13 15° 297° (WNW) 11:08:40 437.405
AIST 2 29 Sep 11:04:59 11:07:25 15° 37° (NE) 11:09:51 435.215
CUBEBUG 2 29 Sep 11:06:25 11:09:25 19° 295° (WNW) 11:12:28 437.445
POPSAT HIP 1 29 Sep 11:16:32 11:20:11 29° 68° (ENE) 11:23:50 437.405
UWE-3 29 Sep 11:21:10 11:24:17 20° 294° (WNW) 11:27:27 435.000/436.395/437.385
DELFI C3 29 Sep 11:23:31 11:27:29 60° 286° (WNW) 11:31:26 145.870
ESTCUBE 1 29 Sep 11:24:46 11:25:47 11° 88° (E) 11:26:47 437.505/2401.250
NANOSAT C BR1 29 Sep 11:31:24 11:35:19 40° 71° (ENE) 11:39:16 145.865
Cosmos 2499 29 Sep 11:35:06 11:39:09 16° 300° (WNW) 11:43:13 435.465 / 435.565
Oscar 11 29 Sep 11:42:07 11:45:13 19° 295° (WNW) 11:48:19 145.826/435.025
UNISAT 6 29 Sep 11:45:23 11:48:26 19° 267° (W) 11:51:29 437.425
BEESAT 2 29 Sep 11:45:37 11:47:44 14° 250° (WSW) 11:49:49 435.950
ZACube-1 29 Sep 11:47:17 11:50:04 17° 296° (WNW) 11:52:52 437.345
JAS-2 29 Sep 11:50:01 11:56:28 59° 69° (ENE) 12:03:46 435.910
HUMSAT D 29 Sep 11:52:38 11:56:51 60° 287° (WNW) 12:01:04 437.325/437.525
QB50P2 29 Sep 11:56:03 12:00:16 86° 76° (ENE) 12:04:30 145.880/145.840
POLYITAN 1 29 Sep 11:58:16 12:02:28 87° 76° (ENE) 12:06:41 437.675
HO-68 29 Sep 11:58:57 12:01:26 12° 314° (NW) 12:03:55 435.675
AISAT 29 Sep 12:08:43 12:11:25 16° 91° (E) 12:14:06 437.250
PHONESAT 2.4 29 Sep 12:10:17 12:13:02 37° 171° (S) 12:15:46 2401.200-2431.200
PCSat 29 Sep 12:18:32 12:22:42 22° 42° (NE) 12:26:50 145.827
Oscar 19 29 Sep 12:21:51 12:24:58 16° 59° (ENE) 12:28:06 437.125/150
50 SAT 29 Sep 12:24:55 12:27:36 19° 94° (E) 12:30:16 437.505
BUGSAT 1 29 Sep 12:29:39 12:33:42 69° 75° (ENE) 12:37:45 437.445
DUCHIFAT 1 29 Sep 12:34:10 12:38:09 43° 261° (W) 12:42:09 145.980
DX 1 29 Sep 12:38:10 12:41:18 19° 93° (E) 12:44:24 434.975-435.025
QB50P1 29 Sep 12:38:19 12:42:10 34° 263° (W) 12:46:02 145.935-145.965
AIST 2 29 Sep 12:42:18 12:46:31 90° 6° (N) 12:50:43 435.215
YUBILEINY 29 Sep 12:44:39 12:50:27 19° 59° (ENE) 12:56:14 435.215
CUBEBUG 1 29 Sep 12:50:56 12:55:13 55° 100° (E) 12:59:26 437.445
VELOX 1 29 Sep 12:51:03 12:55:15 41° 99° (E) 12:59:24 145.980
POPSAT HIP 1 29 Sep 12:52:28 12:55:57 25° 265° (W) 12:59:27 437.405
M-CUBED/EXP-1 PRIME 29 Sep 12:57:12 12:59:28 17° 100° (E) 13:01:43 437.505
ESTCUBE 1 29 Sep 12:58:35 13:03:10 80° 283° (WNW) 13:07:40 437.505/2401.250
NANOSAT C BR1 29 Sep 13:08:18 13:11:14 18° 267° (W) 13:14:09 145.865
SPROUT 29 Sep 13:23:58 13:28:09 54° 100° (E) 13:32:18 437.525
Gurwin Techsat 1B 29 Sep 13:31:02 13:35:40 32° 66° (ENE) 13:40:20 435.225
JAS-2 29 Sep 13:36:25 13:41:59 28° 270° (W) 13:48:06 435.910
UKube-1 29 Sep 13:41:25 13:45:44 70° 102° (ESE) 13:50:02 .
AISAT 29 Sep 13:43:56 13:48:12 51° 288° (WNW) 13:52:26 437.250
PHONESAT 2.4 29 Sep 13:46:07 13:48:51 36° 189° (S) 13:51:36 2401.200-2431.200
AUBIESAT-1 29 Sep 13:51:53 13:55:12 75° 110° (ESE) 13:58:31 437.475
50 SAT 29 Sep 13:57:55 14:01:08 29° 290° (WNW) 14:04:20 437.505
Oscar 19 29 Sep 13:58:28 14:03:40 76° 257° (WSW) 14:08:54 437.125/150
PCSat 29 Sep 14:01:15 14:06:41 75° 242° (WSW) 14:12:04 145.827
AO-7 29 Sep 14:06:18 14:12:34 25° 51° (NE) 14:18:50 29.400- 29.500
BUGSAT 1 29 Sep 14:08:55 14:09:31 10° 271° (W) 14:10:08 437.445
DX 1 29 Sep 14:13:34 14:17:40 41° 290° (WNW) 14:21:43 434.975-435.025
SWISSCUBE 29 Sep 14:24:03 14:25:29 11° 88° (E) 14:26:54 437.505
VELOX 1 29 Sep 14:28:10 14:31:26 21° 296° (WNW) 14:34:40 145.980
CUBEBUG 1 29 Sep 14:28:27 14:31:04 16° 298° (WNW) 14:33:38 437.445
Cosmos 2504 29 Sep 14:28:33 14:34:56 30° 69° (ENE) 14:41:36 435.465 / 435.565
M-CUBED/EXP-1 PRIME 29 Sep 14:31:18 14:34:03 25° 296° (WNW) 14:36:48 437.505
SO-50 29 Sep 14:33:34 14:37:07 21° 112° (ESE) 14:40:39 436.795
BEESAT 29 Sep 14:35:59 14:38:23 14° 90° (E) 14:40:45 436.000
Cosmos 2491 29 Sep 14:37:58 14:46:02 42° 86° (E) 14:54:07 435.465 / 435.565
TISAT 1 29 Sep 14:38:07 14:42:17 70° 101° (ESE) 14:46:26 437.305
YUBILEINY 29 Sep 14:39:58 14:48:44 83° 82° (E) 14:57:26 435.215
ITAMSAT 1 29 Sep 14:55:32 15:00:32 52° 70° (ENE) 15:05:34 435.822/435.867
SPROUT 29 Sep 15:01:08 15:03:39 16° 297° (WNW) 15:06:11 437.525
Gurwin Techsat 1B 29 Sep 15:10:41 15:15:32 36° 263° (W) 15:20:25 435.225
UKube-1 29 Sep 15:19:16 15:21:13 13° 300° (WNW) 15:23:10 .
PHONESAT 2.4 29 Sep 15:22:42 15:24:31 15° 204° (SSW) 15:26:20 2401.200-2431.200
AIST 1 29 Sep 15:40:56 15:43:46 17° 69° (ENE) 15:46:36
ITUPSAT 1 29 Sep 15:46:56 15:51:45 67° 102° (ESE) 15:56:32 437.325
MOZHAYETS 4 29 Sep 15:46:57 15:49:05 13° 89° (E) 15:51:11
AO-7 29 Sep 15:56:03 16:04:24 87° 251° (WSW) 16:12:46 29.400- 29.500
SWISSCUBE 29 Sep 15:59:03 16:03:53 83° 283° (WNW) 16:08:41 437.505
O/OREOS (USA 219) 29 Sep 16:08:34 16:12:05 21° 53° (NE) 16:15:34 437.305
BEESAT 29 Sep 16:11:52 16:16:39 70° 287° (WNW) 16:21:24 436.000
SO-50 29 Sep 16:12:29 16:17:15 56° 309° (NW) 16:21:57 436.795
TISAT 1 29 Sep 16:15:42 16:17:22 12° 299° (WNW) 16:19:03 437.305
HORYU 2 29 Sep 16:18:55 16:21:41 17° 62° (ENE) 16:24:28 437.375
Cosmos 2504 29 Sep 16:21:25 16:28:40 57° 268° (W) 16:36:25 435.465 / 435.565
Cosmos 2491 29 Sep 16:34:26 16:42:46 46° 287° (WNW) 16:51:13 435.465 / 435.565
ITAMSAT 1 29 Sep 16:36:29 16:40:18 21° 268° (W) 16:44:09 435.822/435.867
YUBILEINY 29 Sep 16:38:24 16:44:24 21° 282° (WNW) 16:50:25 435.215
NOAA 15 29 Sep 16:49:08 16:51:16 12° 56° (NE) 16:53:24 137.62
GOMX 1 29 Sep 16:50:18 16:51:19 11° 58° (ENE) 16:52:19 467.674
BRITE-PL 29 Sep 17:05:42 17:10:42 33° 67° (ENE) 17:15:35 437.365/2234.400
CUTE-I 29 Sep 17:10:21 17:13:24 16° 58° (ENE) 17:16:27 437.470
Cubesat XI-IV 29 Sep 17:10:49 17:13:51 16° 58° (ENE) 17:16:54 437.490
CUBESAT XI-V 29 Sep 17:11:28 17:13:44 13° 89° (E) 17:15:59 437.345
AIST 1 29 Sep 17:17:33 17:21:37 43° 267° (W) 17:25:39
MOZHAYETS 4 29 Sep 17:22:04 17:26:43 70° 286° (WNW) 17:31:20
ITUPSAT 1 29 Sep 17:26:07 17:29:03 16° 300° (WNW) 17:31:58 437.325
KKS-1 29 Sep 17:34:04 17:38:31 83° 287° (WNW) 17:42:56 437.445
SWISSCUBE 29 Sep 17:39:26 17:40:53 11° 303° (WNW) 17:42:19 437.505
LilacSat-2 29 Sep 17:46:18 17:49:08 21° 67° (ENE) 17:52:01 437.200
O/OREOS (USA 219) 29 Sep 17:47:19 17:51:46 48° 252° (WSW) 17:56:09 437.305
AO-7 29 Sep 17:52:51 17:58:15 19° 270° (W) 18:03:41 29.400- 29.500
HORYU 2 29 Sep 17:53:30 17:57:49 54° 259° (W) 18:02:10 437.375
SO-50 29 Sep 17:56:32 17:58:45 13° 330° (NNW) 18:00:56 436.795
STARS 29 Sep 18:02:35 18:06:58 84° 283° (WNW) 18:11:20 437.465
NOAA 18 29 Sep 18:04:49 18:09:48 37° 66° (ENE) 18:14:47 137.9125
CUSAT 1 29 Sep 18:07:43 18:12:10 19° 78° (ENE) 18:17:04 437.405
GOMX 1 29 Sep 18:23:15 18:28:35 71° 75° (ENE) 18:33:39 467.674
NOAA 15 29 Sep 18:24:52 18:30:10 79° 74° (ENE) 18:35:31 137.62
DOVE 4 29 Sep 18:35:48 18:40:26 41° 71° (ENE) 18:44:50 437.250
BRITE-PL 29 Sep 18:43:45 18:49:02 39° 264° (W) 18:54:14 437.365/2234.400
CUBESAT XI-V 29 Sep 18:46:55 18:51:36 68° 286° (WNW) 18:56:13 437.345
CUTE-I 29 Sep 18:47:27 18:52:46 81° 256° (WSW) 18:58:08 437.470
Cubesat XI-IV 29 Sep 18:47:56 18:53:14 81° 255° (WSW) 18:58:36 437.490
HO-68 29 Sep 18:51:41 18:57:33 28° 58° (ENE) 19:03:24 435.675
RS-15 29 Sep 19:01:04 19:10:37 32° 103° (ESE) 19:20:32 29.354- 29.394
GONETS M04 29 Sep 19:02:48 19:10:33 33° 67° (ENE) 19:18:11
SEEDS 29 Sep 19:17:30 19:19:49 15° 63° (ENE) 19:22:08 437.485
CUTE 1.7 + AOD 2 29 Sep 19:18:40 19:21:50 21° 66° (ENE) 19:25:01 437.475
LilacSat-2 29 Sep 19:20:00 19:23:17 29° 264° (W) 19:26:37 437.200
CANX-2 29 Sep 19:20:00 19:23:25 24° 67° (ENE) 19:26:53 2200.000
Cosmos 2499 29 Sep 19:25:56 19:32:50 36° 72° (ENE) 19:40:09 435.465 / 435.565
CINEMA 3 29 Sep 19:34:08 19:38:17 41° 72° (ENE) 19:42:18 145.822/145.860
AAUSAT CUBESAT 2 29 Sep 19:35:09 19:36:48 12° 61° (ENE) 19:38:27 437.432
NOAA 18 29 Sep 19:45:39 19:50:29 32° 264° (W) 19:55:20 137.9125
CUSAT 1 29 Sep 19:46:26 19:52:56 87° 280° (W) 20:00:48 437.405
ISS 29 Sep 19:50:31 19:53:14 25° 137° (SE) 19:55:58 145.825
DANDE 29 Sep 19:54:50 20:00:01 46° 90° (E) 20:06:41 436.750
GOMX 1 29 Sep 20:03:55 20:07:03 16° 270° (W) 20:10:07 467.674
NOAA 15 29 Sep 20:07:53 20:10:33 14° 271° (W) 20:13:15 137.62
AO-85 29 Sep 20:14:17 20:18:03 21° 112° (ESE) 20:21:41 145.980
DOVE 4 29 Sep 20:14:19 20:18:14 23° 266° (W) 20:22:00 437.250
COMPASS 1 29 Sep 20:18:44 20:22:41 42° 71° (ENE) 20:26:40 437.405
FUNcube-1 29 Sep 20:25:34 20:28:05 16° 64° (ENE) 20:30:38 145.935
CUBEBUG 2 29 Sep 20:28:30 20:32:25 41° 72° (ENE) 20:36:21 437.445
CUTE-I 29 Sep 20:33:07 20:33:38 10° 274° (W) 20:34:09 437.470
Cubesat XI-IV 29 Sep 20:33:34 20:34:08 10° 274° (W) 20:34:41 437.490
STRAND 1 29 Sep 20:36:27 20:41:37 72° 103° (ESE) 20:46:46 437.568
HO-68 29 Sep 20:37:41 20:44:46 64° 257° (WSW) 20:51:54 435.675
UWE-3 29 Sep 20:42:25 20:46:17 39° 71° (ENE) 20:50:09 435.000/436.395/437.385
SEEDS 29 Sep 20:50:53 20:55:02 58° 260° (W) 20:59:14 437.485
CUTE 1.7 + AOD 2 29 Sep 20:53:28 20:57:25 38° 263° (W) 21:01:26 437.475
CANX-2 29 Sep 20:55:21 20:59:08 32° 264° (W) 21:02:59 2200.000
GONETS M04 29 Sep 20:59:17 21:07:53 60° 269° (W) 21:16:24
Oscar 11 29 Sep 21:01:08 21:05:08 39° 71° (ENE) 21:09:11 145.826/435.025
ZACube-1 29 Sep 21:07:04 21:11:01 45° 72° (ENE) 21:15:00 437.345
AAUSAT CUBESAT 2 29 Sep 21:07:33 21:11:42 70° 259° (W) 21:15:54 437.432
RS-15 29 Sep 21:10:07 21:21:50 80° 307° (NW) 21:34:12 29.354- 29.394
CINEMA 3 29 Sep 21:12:27 21:15:35 19° 267° (W) 21:18:40 145.822/145.860
HUMSAT D 29 Sep 21:12:43 21:13:55 11° 60° (ENE) 21:15:08 437.325/437.525
Cosmos 2499 29 Sep 21:18:53 21:26:05 48° 270° (W) 21:33:48 435.465 / 435.565
ISS 29 Sep 21:26:24 21:29:34 49° 334° (NNW) 21:32:45 145.825
CUSAT 1 29 Sep 21:31:23 21:36:16 20° 303° (WNW) 21:41:40 437.405
DANDE 29 Sep 21:38:04 21:43:06 31° 296° (WNW) 21:49:23 436.750
AO-85 29 Sep 21:53:04 21:58:11 61° 308° (NW) 22:02:58 145.980
COMPASS 1 29 Sep 21:55:37 21:58:26 17° 268° (W) 22:01:16 437.405
FUNcube-1 29 Sep 21:59:58 22:03:57 48° 261° (W) 22:07:59 145.935
CUBEBUG 2 29 Sep 22:06:30 22:09:15 17° 268° (W) 22:12:01 437.445
DELFI C3 29 Sep 22:10:02 22:14:02 89° 261° (W) 22:18:05 145.870
STRAND 1 29 Sep 22:17:02 22:20:13 17° 300° (WNW) 22:23:24 437.568
UWE-3 29 Sep 22:20:01 22:22:55 18° 268° (W) 22:25:49 435.000/436.395/437.385
ESTCUBE 1 29 Sep 22:25:15 22:27:24 13° 60° (ENE) 22:29:33 437.505/2401.250
PRISM 29 Sep 22:29:23 22:33:31 73° 285° (WNW) 22:37:36 437.425
HO-68 29 Sep 22:32:58 22:33:50 10° 276° (W) 22:34:43 435.675
ANTELSAT 29 Sep 22:33:25 22:36:26 18° 92° (E) 22:39:29 437.575/2403.000
Oscar 11 29 Sep 22:38:17 22:41:26 20° 268° (W) 22:44:37 145.826/435.025
HUMSAT D 29 Sep 22:44:51 22:48:56 74° 259° (WSW) 22:53:04 437.325/437.525
ZACube-1 29 Sep 22:45:04 22:47:34 16° 269° (W) 22:50:06 437.345
TIGRISAT 29 Sep 22:52:47 22:56:31 26° 95° (E) 23:00:18 435.000
GONETS M04 29 Sep 23:01:02 23:02:40 11° 290° (WNW) 23:04:18
SO-50 29 Sep 23:02:38 23:06:40 29° 44° (NE) 23:10:35 436.795
ISS 29 Sep 23:04:00 23:06:36 21° 354° (N) 23:09:12 145.825
50 SAT 29 Sep 23:04:22 23:05:38 12° 63° (ENE) 23:06:55 437.505
AUBIESAT-1 29 Sep 23:07:05 23:08:34 12° 58° (ENE) 23:10:01 437.475
AISAT 29 Sep 23:07:24 23:10:27 18° 63° (ENE) 23:13:30 437.250
RS-15 29 Sep 23:25:59 23:36:35 35° 335° (NNW) 23:47:33 29.354- 29.394
UNISAT 6 29 Sep 23:33:38 23:38:04 76° 102° (ESE) 23:42:36 437.425
DX 1 29 Sep 23:35:02 23:38:19 21° 65° (ENE) 23:41:37 434.975-435.025
AO-85 29 Sep 23:37:04 23:39:32 14° 327° (NNW) 23:41:55 145.980
QB50P2 29 Sep 23:41:19 23:43:11 13° 90° (E) 23:45:03 145.880/145.840
POLYITAN 1 29 Sep 23:43:30 23:45:22 13° 90° (E) 23:47:14 437.675
M-CUBED/EXP-1 PRIME 29 Sep 23:43:56 23:47:38 36° 66° (ENE) 23:51:06 437.505
CUBEBUG 1 29 Sep 23:47:49 23:52:08 54° 72° (ENE) 23:56:26 437.445
VELOX 1 29 Sep 23:49:23 23:53:36 44° 71° (ENE) 23:57:51 145.980
ESTCUBE 1 29 Sep 23:59:04 00:03:35 75° 257° (WSW) 00:08:10 437.505/2401.250
ANTELSAT 30 Sep 00:09:08 00:13:22 47° 288° (WNW) 00:17:42 437.575/2403.000
DUCHIFAT 1 30 Sep 00:16:57 00:20:27 25° 95° (E) 00:23:55 145.980
SPROUT 30 Sep 00:18:32 00:22:38 48° 72° (ENE) 00:26:44 437.525
QB50P1 30 Sep 00:21:19 00:25:06 32° 97° (E) 00:28:54 145.935-145.965
TIGRISAT 30 Sep 00:29:19 00:33:12 31° 291° (WNW) 00:37:10 435.000
POPSAT HIP 1 30 Sep 00:34:54 00:38:56 44° 99° (E) 00:42:58 437.405
50 SAT 30 Sep 00:35:05 00:38:40 55° 259° (W) 00:42:17 437.505
UKube-1 30 Sep 00:36:53 00:41:11 70° 75° (ENE) 00:45:31 .
BEESAT 3 30 Sep 00:36:57 00:40:25 32° 116° (ESE) 00:43:56 437.485
AUBIESAT-1 30 Sep 00:38:42 00:42:39 64° 253° (WSW) 00:46:22 437.475
ISS 30 Sep 00:40:58 00:43:49 26° 14° (NNE) 00:46:39 145.825
AISAT 30 Sep 00:42:15 00:46:34 49° 260° (W) 00:50:53 437.250
JAS-2 30 Sep 00:42:41 00:50:20 51° 97° (E) 00:57:32 435.910
SO-50 30 Sep 00:42:59 00:47:14 40° 243° (WSW) 00:51:24 436.795
Cosmos 2491 30 Sep 00:46:36 00:53:17 23° 62° (ENE) 00:59:54 435.465 / 435.565
NANOSAT C BR1 30 Sep 00:49:34 00:53:44 62° 101° (E) 00:57:54 145.865
DX 1 30 Sep 01:10:09 01:14:15 40° 261° (W) 01:18:24 434.975-435.025
UNISAT 6 30 Sep 01:12:19 01:14:13 13° 299° (WNW) 01:16:08 437.425
QB50P2 30 Sep 01:15:12 01:19:22 60° 286° (WNW) 01:23:31 145.880/145.840
POLYITAN 1 30 Sep 01:17:23 01:21:33 60° 286° (WNW) 01:25:43 437.675
M-CUBED/EXP-1 PRIME 30 Sep 01:19:17 01:22:12 19° 259° (W) 01:25:00 437.505
ITUPSAT 1 30 Sep 01:20:45 01:22:31 12° 58° (ENE) 01:24:18 437.325
CUBEBUG 1 30 Sep 01:26:09 01:28:44 15° 269° (W) 01:31:19 437.445
VELOX 1 30 Sep 01:27:08 01:30:16 19° 267° (W) 01:33:26 145.980
TISAT 1 30 Sep 01:30:43 01:34:50 61° 73° (ENE) 01:38:58 437.305
SWISSCUBE 30 Sep 01:31:08 01:34:09 17° 61° (ENE) 01:37:10 437.505
BEESAT 2 30 Sep 01:36:34 01:40:30 70° 121° (ESE) 01:44:28 435.950
BEESAT 30 Sep 01:43:24 01:46:48 20° 62° (ENE) 01:50:12 436.000
RS-15 30 Sep 01:43:51 01:54:02 29° 10° (N) 02:04:18 29.354- 29.394
BUGSAT 1 30 Sep 01:45:08 01:49:10 83° 286° (WNW) 01:53:11 437.445
Gurwin Techsat 1B 30 Sep 01:48:48 01:49:21 10° 86° (E) 01:49:54 435.225
YUBILEINY 30 Sep 01:49:31 01:55:12 19° 77° (ENE) 02:00:52 435.215
DUCHIFAT 1 30 Sep 01:52:28 01:56:07 29° 292° (WNW) 01:59:46 145.980
SPROUT 30 Sep 01:56:12 01:58:49 16° 269° (W) 02:01:28 437.525
QB50P1 30 Sep 01:57:22 02:00:45 24° 293° (WNW) 02:04:07 145.935-145.965
